This is the latest recevied weather packets stored in our database for station/object KM4KBD. If no packets are shown the sender has not sent any weather packets the latest 10 day(s).
| Time | Temp. | Humidity | Pressure | Rain* | Wind** | Luminosity | Snow |
|---|---|---|---|---|---|---|---|
| 1777908020 | 16.67° C | 66% | 1018.9 hPa | 0 mm | - | 330 W/m² | - |
| 1777907715 | 16.67° C | 66% | 1018.9 hPa | 0 mm | - | 267 W/m² | - |
| 1777907410 | 16.67° C | 64% | 1018.9 hPa | 0 mm | - | 312 W/m² | - |
| 1777907108 | 16.67° C | 64% | 1019 hPa | 0 mm | - | 443 W/m² | - |
| 1777906805 | 16.67° C | 66% | 1018.9 hPa | 0 mm | - | 429 W/m² | - |
| 1777906502 | 16.11° C | 66% | 1019.1 hPa | 0 mm | - | 425 W/m² | - |
| 1777906198 | 16.11° C | 66% | 1019.1 hPa | 0 mm | - | 382 W/m² | - |
| 1777905895 | 15.56° C | 66% | 1019.4 hPa | 0 mm | - | 393 W/m² | - |
| 1777905591 | 15.56° C | 67% | 1019.3 hPa | 0 mm | - | 390 W/m² | - |
| 1777905288 | 15.56° C | 69% | 1019.3 hPa | 0 mm | - | 276 W/m² | - |
| 1777904985 | 15° C | 69% | 1019.5 hPa | 0 mm | - | 424 W/m² | - |
| 1777904683 | 15° C | 70% | 1019.6 hPa | 0 mm | - | 248 W/m² | - |
| 1777904380 | 14.44° C | 70% | 1019.9 hPa | 0 mm | - | 272 W/m² | - |
| 1777904077 | 14.44° C | 72% | 1019.7 hPa | 0 mm | - | 229 W/m² | - |
| 1777903773 | 13.89° C | 72% | 1019.4 hPa | 0 mm | - | 199 W/m² | - |
| 1777903470 | 13.89° C | 72% | 1019.1 hPa | 0 mm | - | 149 W/m² | - |
| 1777903166 | 13.89° C | 72% | 1019.2 hPa | 0 mm | - | 172 W/m² | - |
| 1777902862 | 13.89° C | 73% | 1019.5 hPa | 0 mm | - | 163 W/m² | - |
| 1777902560 | 13.33° C | 72% | 1019.8 hPa | 0 mm | - | 140 W/m² | - |
| 1777902257 | 13.33° C | 73% | 1019.6 hPa | 0 mm | - | 127 W/m² | - |
| 1777901955 | 13.33° C | 75% | 1019.8 hPa | 0 mm | - | 123 W/m² | - |
| 1777901652 | 12.78° C | 74% | 1019.8 hPa | 0 mm | - | 122 W/m² | - |
| 1777901349 | 12.78° C | 75% | 1019.6 hPa | 0 mm | - | 85 W/m² | - |
| 1777901047 | 12.78° C | 76% | 1020.1 hPa | 0 mm | - | 62 W/m² | - |
| 1777900744 | 12.78° C | 75% | 1019.6 hPa | 0 mm | - | 69 W/m² | - |
* Rain latest hour (hover to see other rain measurements)
** Current wind speed in m/s (hover to see current wind gust speed)